Kaneohe MCBH, HI

10:23 PM HST on October 17, 2017 (GMT -1000)
Kaneohe Bay Marine Corps Air Facility

Weather History for PHNG - July, 2013

Change the Weather History Date:

Friday, July 5, 2013

  Actual Average Record
Temperature  
Mean Temperature 80 °F -  
Max Temperature 87 °F 79 °F 87 °F (2013)
Min Temperature 73 °F 72 °F 71 °F (2012)
Cooling Degree Days 15    
Growing Degree Days 30 (Base 50)    
Moisture  
Dew Point 68 °F    
Average Humidity 69    
Maximum Humidity 100    
Minimum Humidity 48    
Precipitation  
Precipitation 0.00 in - - ()
Sea Level Pressure  
Sea Level Pressure 30.02 in    
Wind  
Wind Speed 2 mph (NNE)    
Max Wind Speed 9 mph    
Max Gust Speed -    
Visibility 7 miles    
Events      
Averages and records for this station are not official NWS values.
T = Trace of Precipitation, MM = Missing Value Source: NWS Daily Summary

Daily Weather History Graph

Daily Weather History Graph

Search for Another Location

Airport or City:

Trip Planner

Search our weather history database for the weather conditions in past years. The results will help you decide how hot, cold, wet, or windy it might be!

Date:

Astronomy

Jul. 05, 2013 Rise Set
Actual Time 5:53 AM HST 7:17 PM HST
Civil Twilight 5:29 AM HST 7:42 PM HST
Nautical Twilight 4:59 AM HST 8:11 PM HST
Astronomical Twilight 4:29 AM HST 8:42 PM HST
Moon 3:55 AM HST (7/5) 5:27 PM HST (7/5)
Length of Visible Light 14h 13m
Length of Day
13h 23m
Waning Crescent, 5% of the Moon is Illuminated
Jul 5
Waning Crescent
Jul 7
New
Jul 15
First Quarter
Jul 22
Full
Jul 29
Last Quarter

Hourly Weather History & Observations

Time (HST) Temp. Heat Index Dew Point Humidity Pressure Visibility Wind Dir Wind Speed Gust Speed Precip Events Conditions
12:57 AM 77.2 °F - 66.0 °F 68% 30.03 in 7.0 mi Calm Calm - N/A   Scattered Clouds
1:57 AM 77.2 °F - 66.0 °F 68% 30.01 in 7.0 mi Calm Calm - N/A   Scattered Clouds
2:57 AM 75.7 °F - 66.9 °F 74% 30.00 in 7.0 mi Calm Calm - N/A   Partly Cloudy
3:57 AM 75.7 °F - 68.0 °F 77% 30.00 in 7.0 mi Calm Calm - N/A   Scattered Clouds
4:57 AM 73.9 °F - 68.0 °F 82% 30.00 in 7.0 mi Calm Calm - N/A   Scattered Clouds
5:57 AM 73.9 °F - 68.0 °F 82% 30.01 in 7.0 mi Calm Calm - N/A   Partly Cloudy
6:57 AM 73.4 °F - 68.0 °F 83% 30.02 in 7.0 mi South 3.5 mph - N/A   Partly Cloudy
7:57 AM 75.4 °F - 69.1 °F 81% 30.04 in 7.0 mi Calm Calm - N/A   Scattered Clouds
8:57 AM 80.8 °F 83.8 °F 69.1 °F 67% 30.04 in 7.0 mi Variable 4.6 mph - N/A   Scattered Clouds
9:57 AM 80.6 °F 82.9 °F 66.9 °F 63% 30.04 in - North 6.9 mph - N/A   Clear
10:57 AM 82.4 °F 84.4 °F 66.0 °F 57% 30.04 in 7.0 mi North 5.8 mph - N/A   Clear
11:57 AM 82.4 °F 84.8 °F 66.9 °F 59% 30.04 in 7.0 mi NNE 5.8 mph - 0.00 in   Partly Cloudy
12:57 PM 82.4 °F 96.1 °F 82.4 °F 100% 30.02 in 10.0 mi NNE 8.1 mph - N/A   Partly Cloudy
1:57 PM 82.4 °F 84.8 °F 66.9 °F 59% 30.01 in 7.0 mi North 8.1 mph - N/A   Clear
2:57 PM 83.3 °F 85.9 °F 66.9 °F 58% 30.00 in 7.0 mi North 3.5 mph - N/A   Partly Cloudy
3:57 PM 87.8 °F 90.0 °F 66.0 °F 48% 29.98 in 7.0 mi NNE 6.9 mph - N/A   Clear
4:49 PM 84.2 °F 87.3 °F 68.0 °F 58% 29.99 in 6.2 mi North 8.1 mph - N/A   Mostly Cloudy
4:57 PM 84.2 °F 87.3 °F 68.0 °F 58% 29.97 in 7.0 mi North 9.2 mph - N/A   Scattered Clouds
5:57 PM 84.9 °F 88.2 °F 68.0 °F 57% 29.97 in 7.0 mi NNE 6.9 mph - N/A   Scattered Clouds
6:18 PM 82.4 °F 85.4 °F 68.0 °F 62% 29.99 in 6.2 mi NNE 8.1 mph - N/A   Scattered Clouds
6:57 PM 82.0 °F 84.9 °F 68.0 °F 62% 29.99 in 7.0 mi NE 3.5 mph - N/A   Scattered Clouds
7:57 PM 78.8 °F - 66.9 °F 67% 30.00 in 7.0 mi ENE 3.5 mph - N/A   Partly Cloudy
8:57 PM 78.1 °F - 66.9 °F 68% 30.02 in 7.0 mi Calm Calm - N/A   Clear
9:46 PM 80.6 °F 83.2 °F 68.0 °F 65% 30.05 in - Calm Calm - N/A   Overcast
9:57 PM 77.0 °F - 68.0 °F 74% 30.04 in - Calm Calm - N/A   Scattered Clouds
10:04 PM 77.0 °F - 68.0 °F 74% 30.05 in 6.2 mi Calm Calm - N/A   Scattered Clouds
10:57 PM 75.2 °F - 68.0 °F 78% 30.04 in 10.0 mi Calm Calm - N/A   Scattered Clouds
11:57 PM 75.2 °F - 68.0 °F 78% 30.04 in 10.0 mi Calm Calm - N/A   Partly Cloudy